{"data":{"norad_id":59898,"intl_designator":"2024-100P","name":"STARLINK-31953","alt_names":[],"object_type":"PAYLOAD","status":"ACTIVE","operator":null,"country":"US","launch_date":"2024-05-28","launch_site_code":"AFETR","launch_vehicle":null,"mission":null,"orbit_class":"UNKNOWN","rcs_meters":null,"size_class":null,"mass_kg":null,"dimensions":null,"purposes":["comms"],"wikipedia_slug":null,"has_3d_model":false,"image_url":null,"decayed_at":null,"tle_current":{"epoch":"2026-09-21T21:32:16.120320Z","epoch_age_seconds":53761,"freshness":"FRESH","line1":"1 59898U 24100P   26264.89740880  .00000725  00000+0  35859-4 0  9997","line2":"2 59898  43.0014  93.9186 0001168 266.9373  93.1345 15.27580391131204","mean_motion":15.27580391,"eccentricity":0.0001168,"inclination_deg":43.0014,"raan_deg":93.9186,"arg_perigee_deg":266.9373,"mean_anomaly_deg":93.1345,"bstar":3.5859e-5,"rev_number":13120,"period_min":94.266724585102,"perigee_km":482.24653884597,"apogee_km":483.84931164451,"semimajor_km":6861.1849252452,"source":"CELESTRAK","updated_at":"2026-09-22T09:00:49.108242Z"}}}